TimeAKST,TemperatureF,Dew PointF,Humidity,Sea Level PressureIn,VisibilityMPH,Wind Direction,Wind SpeedMPH,Gust SpeedMPH,PrecipitationIn,Events,Conditions,WindDirDegrees,DateUTC
12:53 AM,-31.0,-9999,N/A,30.05,8.0,North,5.8,-,N/A,,Clear,10,2014-02-13 09:53:00
1:53 AM,-33.0,-9999,N/A,30.05,6.0,NNE,6.9,-,N/A,,Haze,30,2014-02-13 10:53:00
2:18 AM,-34.1,-9999,N/A,30.04,6.0,NNE,5.8,-,N/A,,Haze,30,2014-02-13 11:18:00
2:32 AM,-34.1,-9999,N/A,30.04,6.0,NNE,6.9,-,N/A,,Haze,30,2014-02-13 11:32:00
2:53 AM,-33.0,-9999,N/A,30.04,8.0,NE,8.1,-,N/A,,Scattered Clouds,40,2014-02-13 11:53:00
3:01 AM,-33.0,-9999,N/A,30.03,6.0,NE,8.1,-,N/A,,Haze,40,2014-02-13 12:01:00
3:19 AM,-34.1,-9999,N/A,30.03,8.0,NNE,6.9,-,N/A,,Scattered Clouds,30,2014-02-13 12:19:00
3:53 AM,-33.0,-9999,N/A,30.04,4.0,NE,6.9,-,N/A,,Haze,50,2014-02-13 12:53:00
4:53 AM,-33.0,-9999,N/A,30.04,6.0,NNE,3.5,-,N/A,,Haze,30,2014-02-13 13:53:00
5:53 AM,-29.0,-36.9,66,30.04,7.0,North,5.8,-,N/A,,Overcast,10,2014-02-13 14:53:00
6:53 AM,-29.0,-35.0,73,30.04,7.0,NNE,3.5,-,N/A,,Overcast,30,2014-02-13 15:53:00
7:53 AM,-27.9,-34.1,73,30.04,8.0,NE,5.8,-,N/A,,Overcast,40,2014-02-13 16:53:00
8:53 AM,-25.1,-33.0,66,30.04,5.0,NE,8.1,-,N/A,,Haze,40,2014-02-13 17:53:00
9:53 AM,-24.0,-32.1,66,30.03,6.0,NE,9.2,-,N/A,,Haze,40,2014-02-13 18:53:00
10:53 AM,-26.0,-34.1,66,30.04,10.0,NNE,8.1,-,N/A,,Overcast,30,2014-02-13 19:53:00
11:44 AM,-27.9,-35.0,69,30.04,1.8,NNE,6.9,-,N/A,,Haze,20,2014-02-13 20:44:00
11:50 AM,-27.4,-34.6,69,30.04,3.0,NNE,6.9,-,N/A,,Haze,20,2014-02-13 20:50:00
11:53 AM,-26.0,-35.0,62,30.04,4.0,NNE,6.9,-,N/A,,Haze,20,2014-02-13 20:53:00
12:53 PM,-27.0,-34.1,69,30.04,6.0,NNE,8.1,-,N/A,,Haze,30,2014-02-13 21:53:00
1:53 PM,-25.1,-34.1,63,30.04,10.0,North,4.6,-,N/A,,Clear,10,2014-02-13 22:53:00
2:53 PM,-25.1,-35.0,60,30.04,10.0,North,4.6,-,N/A,,Mostly Cloudy,10,2014-02-13 23:53:00
3:53 PM,-26.0,-32.1,73,30.04,3.0,NNE,6.9,-,N/A,,Haze,30,2014-02-14 00:53:00
4:07 PM,-25.1,-31.0,74,30.03,3.0,NNE,5.8,-,N/A,,Haze,30,2014-02-14 01:07:00
4:53 PM,-23.1,-31.0,67,30.04,4.0,NNE,9.2,-,N/A,,Haze,20,2014-02-14 01:53:00
5:45 PM,-24.0,-31.0,70,30.03,7.0,NNE,11.5,-,N/A,,Overcast,30,2014-02-14 02:45:00
5:53 PM,-24.0,-31.0,70,30.04,5.0,NNE,10.4,-,N/A,,Haze,30,2014-02-14 02:53:00
6:35 PM,-24.0,-31.0,70,30.03,4.0,NE,9.2,-,N/A,,Haze,40,2014-02-14 03:35:00
6:53 PM,-23.1,-32.1,63,30.04,4.0,NE,11.5,-,N/A,,Haze,40,2014-02-14 03:53:00
7:53 PM,-27.0,-34.1,69,30.04,8.0,NNE,6.9,-,N/A,,Scattered Clouds,30,2014-02-14 04:53:00
8:53 PM,-29.9,-9999,N/A,30.04,9.0,NNE,9.2,-,N/A,,Mostly Cloudy,30,2014-02-14 05:53:00
9:37 PM,-29.9,-9999,N/A,30.04,9.0,NNE,8.1,-,N/A,,Scattered Clouds,20,2014-02-14 06:37:00
9:53 PM,-29.0,-36.9,66,30.04,10.0,NNE,8.1,-,N/A,,Clear,20,2014-02-14 06:53:00
10:53 PM,-29.0,-35.0,73,30.05,7.0,NNE,8.1,-,N/A,,Overcast,30,2014-02-14 07:53:00
11:53 PM,-25.1,-32.1,70,30.05,6.0,NNE,9.2,-,N/A,,Haze,30,2014-02-14 08:53:00